Location: Bord�res
(43.2000°N, 0.2167°W)
Time: 13:11:26
(UTC+00:00)

Cosmos 1066 Rocket - Pass Details

Date: 03 March 2021
Orbit: 799 x 894 km, 81.2° (Epoch: 20 April)

Event Time Altitude Azimuth Distance (km) Brightness Sun altitude
Rises 19:36:14 0° 354° (N) 3,442 7.6 -19.6°
Reaches altitude 10° 19:38:44 10° 0° (N) 2,515 6.8 -20.1°
Maximum altitude 19:44:17 50° 75° (ENE) 1,116 4.4 -21.1°
Enters shadow 19:45:37 42° 114° (ESE) 1,242 4.6 -21.3°
